Location: Fundy National Park
(45.6138°N, 65.0316°W)
Time: 08:08:18
(UTC-03:00)

ISS - Visible Passes

Search period start: 22 October 2019 00:00
Search period end: 01 November 2019 00:00
Orbit: 411 x 421 km, 51.6° (Epoch: 22 October)

Date Brightness Start Highest point End Pass type
(mag) Time Alt. Az. Time Alt. Az. Time Alt. Az.
23 Oct -1.3 07:14:47 10° SSW 07:17:33 24° SE 07:20:20 10° E visible
24 Oct -0.8 06:27:08 10° S 06:29:09 15° SE 06:31:10 10° E visible
25 Oct -3.1 07:13:35 10° SW 07:16:54 58° SE 07:20:13 10° ENE visible
26 Oct -2.3 06:25:34 12° SSW 06:28:22 35° SE 06:31:29 10° ENE visible
27 Oct -1.7 05:39:34 22° SSE 05:39:53 22° SE 05:42:34 10° E visible
27 Oct -3.7 07:13:01 10° WSW 07:16:23 65° NNW 07:19:44 10° ENE visible
28 Oct -3.8 06:26:18 32° WSW 06:27:43 85° SSE 06:31:06 10° ENE visible
29 Oct -2.4 05:39:59 40° E 05:39:59 40° E 05:42:25 10° ENE visible
29 Oct -3.0 07:12:53 11° W 07:15:57 38° NNW 07:19:08 10° NE visible
30 Oct -0.1 04:53:33 10° ENE 04:53:33 10° ENE 04:53:37 10° ENE visible
30 Oct -3.4 06:26:27 39° WNW 06:27:12 49° NNW 06:30:30 10° NE visible
31 Oct -2.0 05:39:55 31° NE 05:39:55 31° NE 05:41:51 10° ENE visible
31 Oct -2.5 07:12:49 11° WNW 07:15:36 29° N 07:18:36 10° ENE visible
